Location: Grand Rapids
(42.9630°N, 85.6680°W)
Time: 03:03:09
(UTC-04:00)

S-56A Canister/Altair - Pass Details

Date: 31 May 2024
Orbit: 637 x 2489 km, 38.9° (Epoch: 22 June)

Event Time Altitude Azimuth Distance (km) Brightness Sun altitude
Rises 08:03:04 0° 268° (W) 6,104 11.5 18.8°
Reaches altitude 10° 08:07:16 10° 267° (W) 4,987 11.1 19.6°
Maximum altitude 08:21:03 72° 187° (S) 1,985 9.9 22.0°
Drops below altitude 10° 08:30:35 10° 105° (ESE) 3,566 12.3 23.8°
Sets 08:33:07 0° 103° (ESE) 4,325 12.5 24.2°
